Regional Weather Roundup
Issued by NWS

Home | Current Version | Previous Version | Text Only | Print | Product List | Glossary Off
Versions: 1 2 3 4 5 6 7 8 9 10 11 12 13 14 15 16 17 18 19 20 21 22 23 24 25 26 27 28 29 30 31 32 33 34 35 36 37 38 39 40 41 42 43 44 45 46 47 48 49 50

000
ASUS43 KOAX 291910
RWRNE

WEATHER ROUNDUP FOR NEBRASKA
NATIONAL WEATHER SERVICE OMAHA NE
100 PM CST THU JAN 29 2015

NOTES: SATELLITE DATA IS BEING USED TO AUGMENT CLOUD COVER ABOVE
       12000 FEET.
       "FAIR" INDICATES FEW OR NO CLOUDS BELOW 12,000 FEET WITH NO
       SIGNIFICANT WEATHER AND/OR OBSTRUCTIONS TO VISIBILITY.

  * THESE STATIONS DO NOT REPORT WEATHER SUCH AS RAIN...SNOW OR FOG.

NEZ001>004-019>022-054>056-292000-
NEBRASKA PANHANDLE

CITY           SKY/WX    TMP DP  RH WIND       PRES   REMARKS
SCOTTSBLUFF    SUNNY     45  20  36 W8        30.48F
ALLIANCE       SUNNY     41  20  43 N9        30.46F
CHADRON        SUNNY     42  17  36 N8        30.48F
KIMBALL        SUNNY     43  16  33 N12       30.45F
SIDNEY         SUNNY     43  12  28 N12       30.48F
$$

NEZ057>060-069>072-079>082-292000-
SOUTHWEST NEBRASKA

CITY           SKY/WX    TMP DP  RH WIND       PRES   REMARKS
NORTH PLATTE   SUNNY     42  23  46 N10       30.48F
IMPERIAL       SUNNY     41  25  53 NW10      30.49F
LEXINGTON      SUNNY     43  25  49 N15G25    30.48F
MCCOOK         SUNNY     44  23  43 NW18      30.49F
OGALLALA       SUNNY     41  24  50 N10G17    30.49F
$$

NEZ005>010-023>029-035>040-094-292000-
NORTH CENTRAL NEBRASKA

CITY           SKY/WX    TMP DP  RH WIND       PRES   REMARKS
VALENTINE      SUNNY     41  22  46 NW15      30.46F
AINSWORTH      SUNNY     39  22  50 NW12G18   30.45F WCI  32
BROKEN BOW     SUNNY     42  24  49 NW16      30.45F
O`NEILL        SUNNY     42  28  57 N17G24    30.44F
ORD            SUNNY     42  22  44 N20G28    30.44F
THEDFORD       SUNNY     42  24  48 N10       30.46F
$$

NEZ041-046>049-061>064-073>077-083>087-292000-
SOUTH CENTRAL NEBRASKA

CITY           SKY/WX    TMP DP  RH WIND       PRES   REMARKS
GRAND ISLAND   MOSUNNY   43  25  49 N23G31    30.46F
AURORA         CLOUDY    41  26  54 NW18      30.45F
HASTINGS       FAIR      43  23  45 N21       30.45F
HEBRON         PTSUNNY   43  24  47 N18G28    30.45F
HOLDREGE       SUNNY     42  24  47 N16G24    30.47S
KEARNEY *      MOSUNNY   43  23  45 N15G23    30.46F
YORK           CLOUDY    41  27  56 N15G26    30.44F
$$

NEZ011>018-030>034-042>045-292000-
NORTHEAST NEBRASKA

CITY           SKY/WX    TMP DP  RH WIND       PRES   REMARKS
NORFOLK        CLOUDY    38  26  62 N21       30.42S WCI  28
ALBION         MOSUNNY   41  26  54 NW20G25   30.43F
BLAIR          CLOUDY    37  25  61 NW22G35   30.39S WCI  27
COLUMBUS *     CLOUDY    39  23  52 N22G30    30.45S WCI  29
FREMONT        CLOUDY    38  27  63 N20G26    30.43S WCI  28
TEKAMAH        CLOUDY    38  25  59 N25       30.42S WCI  27
WAYNE          CLOUDY    37  25  64 NW21      30.43F WCI  26
$$

NEZ050>053-065>068-078-088>093-292000-
SOUTHEAST NEBRASKA

CITY           SKY/WX    TMP DP  RH WIND       PRES   REMARKS
LINCOLN        CLOUDY    40  26  57 N25G33    30.44R WCI  29
OMAHA EPPLEY   CLOUDY    39  26  59 N23G33    30.39S WCI  28
BEATRICE       CLOUDY    40  27  58 N23       30.43S WCI  30
FALLS CITY     CLOUDY    40  25  55 N17G35    30.39R WCI  31
NEBRASKA CITY  CLOUDY    39  21  48 N26G33    30.39F WCI  28
PLATTSMOUTH    CLOUDY    38  24  55 NW22G29   30.39S WCI  28
$$

NEZ044-045-051>053-067-292000-
OMAHA AREA

CITY           SKY/WX    TMP DP  RH WIND       PRES   REMARKS
OMAHA EPPLEY   CLOUDY    39  26  59 N23G33    30.39S WCI  28
BLAIR          CLOUDY    37  25  61 NW22G35   30.39S WCI  27
FREMONT        CLOUDY    38  27  63 N20G26    30.43S WCI  28
MILLARD        CLOUDY    39  26  59 N13G29    30.41S WCI  32
OFFUTT AFB     CLOUDY    39  25  57 NW18      30.39F WCI  30
PLATTSMOUTH    CLOUDY    38  24  55 NW22G29   30.39S WCI  28
WAHOO          CLOUDY    39  25  57 N25G33    30.41F WCI  27
$$


USA.gov is the U.S. government's official web portal to all federal, state and local government web resources and services.